When you browse on this site, cookies collect data to enhance your experience and personalize the content and advertising you see.
Visit our Privacy Policy to learn more. By continuing to use the site, you agree to this use of cookies and data.
  • In United Kingdom
  • List of Countries
  • For 7 days
  • Water Temperature
  • Satellite Maps
  • Weather Map
  • Weather Widgets
  • user-avatar
    Login

    Hourly Weather Metairie

    Today, 22 April, Monday

    Time Temperature Precipitation Wind Pressure Humidity
    00:00 +15°C° 0 mm 1 mps 766 mmHg 66%
    01:00 +15°C° 0 mm 1 mps 765 mmHg 67%
    02:00 +15°C° 0 mm 1 mps 765 mmHg 69%
    03:00 +15°C° 0 mm 1 mps 765 mmHg 70%
    04:00 +15°C° 0 mm 1 mps 765 mmHg 71%
    05:00 +15°C° 0 mm 1 mps 765 mmHg 72%
    06:00 +16°C° 0 mm 1 mps 766 mmHg 76%
    07:00 +19°C° 0 mm 1 mps 766 mmHg 66%
    08:00 +21°C° 0 mm 2 mps 766 mmHg 55%
    09:00 +25°C° 0 mm 2 mps 766 mmHg 45%
    10:00 +26°C° 0 mm 3 mps 766 mmHg 41%
    11:00 +28°C° 0 mm 3 mps 766 mmHg 36%
    12:00 +29°C° 0 mm 4 mps 766 mmHg 32%
    13:00 +29°C° 0 mm 4 mps 766 mmHg 33%
    14:00 +29°C° 0 mm 4 mps 765 mmHg 34%
    15:00 +29°C° 0 mm 4 mps 765 mmHg 35%
    16:00 +28°C° 0 mm 4 mps 765 mmHg 41%
    17:00 +26°C° 0 mm 4 mps 765 mmHg 48%
    18:00 +23°C° 0 mm 4 mps 765 mmHg 54%
    19:00 +22°C° 0 mm 3 mps 765 mmHg 60%
    20:00 +20°C° 0 mm 3 mps 765 mmHg 65%
    21:00 +18°C° 0 mm 3 mps 765 mmHg 71%
    22:00 +18°C° 0 mm 3 mps 765 mmHg 71%
    23:00 +18°C° 0 mm 3 mps 765 mmHg 72%

    Tomorrow, 23 April, Tuesday

    Time Temperature Precipitation Wind Pressure Humidity
    00:00 +18°C° 0 mm 3 mps 765 mmHg 73%
    01:00 +17°C° 0 mm 2 mps 764 mmHg 74%
    02:00 +17°C° 0 mm 2 mps 764 mmHg 75%
    03:00 +17°C° 0 mm 2 mps 764 mmHg 76%
    04:00 +17°C° 0 mm 2 mps 764 mmHg 76%
    05:00 +17°C° 0 mm 2 mps 764 mmHg 76%
    06:00 +18°C° 0 mm 2 mps 764 mmHg 76%
    07:00 +20°C° 0 mm 2 mps 765 mmHg 68%
    08:00 +23°C° 0 mm 2 mps 765 mmHg 61%
    09:00 +25°C° 0 mm 2 mps 765 mmHg 53%
    10:00 +27°C° 0 mm 3 mps 765 mmHg 48%
    11:00 +28°C° 0 mm 3 mps 765 mmHg 42%
    12:00 +30°C° 0 mm 3 mps 765 mmHg 37%
    13:00 +30°C° 0 mm 4 mps 764 mmHg 38%
    14:00 +30°C° 0 mm 4 mps 763 mmHg 39%
    15:00 +30°C° 0 mm 4 mps 763 mmHg 41%
    16:00 +28°C° 0 mm 4 mps 763 mmHg 48%
    17:00 +26°C° 0 mm 5 mps 762 mmHg 55%
    18:00 +25°C° 0 mm 5 mps 762 mmHg 62%
    19:00 +23°C° 0 mm 4 mps 762 mmHg 67%
    20:00 +22°C° 0 mm 3 mps 763 mmHg 72%
    21:00 +22°C° 0 mm 1 mps 763 mmHg 78%
    22:00 +21°C° 0 mm 2 mps 763 mmHg 79%
    23:00 +21°C° 0 mm 2 mps 763 mmHg 80%

    Day after tomorrow, 24 April, Wednesday

    Time Temperature Precipitation Wind Pressure Humidity
    00:00 +21°C° 0 mm 2 mps 763 mmHg 81%
    01:00 +21°C° 0 mm 2 mps 762 mmHg 82%
    02:00 +20°C° 0 mm 2 mps 762 mmHg 84%
    03:00 +20°C° 0 mm 2 mps 761 mmHg 86%
    04:00 +21°C° 0 mm 2 mps 762 mmHg 86%
    05:00 +21°C° 0 mm 2 mps 762 mmHg 86%
    06:00 +21°C° 0 mm 2 mps 762 mmHg 86%
    07:00 +22°C° 0 mm 3 mps 762 mmHg 81%
    08:00 +24°C° 0 mm 3 mps 762 mmHg 75%
    09:00 +26°C° 0 mm 4 mps 762 mmHg 70%
    10:00 +27°C° 0 mm 4 mps 762 mmHg 65%
    11:00 +29°C° 0 mm 4 mps 762 mmHg 59%
    12:00 +30°C° 0 mm 4 mps 762 mmHg 54%
    13:00 +30°C° 0 mm 4 mps 761 mmHg 54%
    14:00 +30°C° 0 mm 4 mps 760 mmHg 55%
    15:00 +30°C° 0 mm 4 mps 760 mmHg 55%
    16:00 +29°C° 0 mm 4 mps 760 mmHg 59%
    17:00 +27°C° 0 mm 4 mps 760 mmHg 63%
    18:00 +26°C° 0 mm 4 mps 759 mmHg 67%
    19:00 +25°C° 0 mm 4 mps 760 mmHg 73%
    20:00 +22°C° 0 mm 4 mps 760 mmHg 79%
    21:00 +21°C° 0 mm 3 mps 760 mmHg 86%
    22:00 +21°C° 0 mm 3 mps 760 mmHg 89%
    23:00 +21°C° 0 mm 3 mps 760 mmHg 92%

    25 April, Thursday

    Time Temperature Precipitation Wind Pressure Humidity
    00:00 +20°C° 0 mm 3 mps 760 mmHg 95%
    01:00 +20°C° 0 mm 3 mps 759 mmHg 95%
    02:00 +21°C° 0 mm 3 mps 759 mmHg 95%
    03:00 +21°C° 0 mm 3 mps 758 mmHg 95%
    04:00 +21°C° 0 mm 3 mps 759 mmHg 95%
    05:00 +21°C° 0 mm 2 mps 759 mmHg 94%
    06:00 +21°C° 0 mm 2 mps 759 mmHg 94%
    07:00 +22°C° 0 mm 3 mps 760 mmHg 89%
    08:00 +25°C° 0 mm 5 mps 760 mmHg 83%
    09:00 +26°C° 0 mm 6 mps 760 mmHg 78%
    10:00 +27°C° 0.2 mm 6 mps 760 mmHg 74%
    11:00 +27°C° 0.2 mm 5 mps 759 mmHg 70%
    12:00 +28°C° 0.2 mm 5 mps 759 mmHg 65%
    13:00 +27°C° 1.1 mm 6 mps 759 mmHg 71%
    14:00 +26°C° 1.1 mm 6 mps 758 mmHg 77%
    15:00 +24°C° 1.1 mm 6 mps 757 mmHg 82%
    16:00 +24°C° 0.2 mm 6 mps 757 mmHg 83%
    17:00 +23°C° 0.2 mm 5 mps 757 mmHg 83%
    18:00 +23°C° 0.2 mm 5 mps 757 mmHg 83%
    19:00 +23°C° 0.2 mm 4 mps 757 mmHg 87%
    20:00 +22°C° 0.2 mm 4 mps 757 mmHg 90%
    21:00 +22°C° 0.2 mm 4 mps 757 mmHg 93%
    22:00 +22°C° 0.8 mm 3 mps 757 mmHg 94%
    23:00 +21°C° 0.8 mm 3 mps 756 mmHg 95%

    26 April, Friday

    Time Temperature Precipitation Wind Pressure Humidity
    00:00 +21°C° 0.8 mm 2 mps 756 mmHg 97%
    01:00 +21°C° 0.5 mm 2 mps 756 mmHg 97%
    02:00 +20°C° 0.5 mm 2 mps 756 mmHg 97%
    03:00 +20°C° 0.5 mm 2 mps 755 mmHg 97%
    04:00 +20°C° 0 mm 3 mps 756 mmHg 97%
    05:00 +20°C° 0 mm 3 mps 756 mmHg 97%
    06:00 +20°C° 0 mm 4 mps 756 mmHg 97%
    07:00 +21°C° 0 mm 4 mps 757 mmHg 92%
    08:00 +22°C° 0 mm 5 mps 757 mmHg 87%
    09:00 +23°C° 0 mm 5 mps 758 mmHg 81%
    10:00 +26°C° 0 mm 5 mps 758 mmHg 72%
    11:00 +28°C° 0 mm 5 mps 758 mmHg 64%
    12:00 +29°C° 0 mm 5 mps 758 mmHg 55%
    13:00 +30°C° 0 mm 5 mps 758 mmHg 52%
    14:00 +32°C° 0 mm 6 mps 757 mmHg 50%
    15:00 +32°C° 0 mm 6 mps 757 mmHg 47%
    16:00 +30°C° 0 mm 5 mps 758 mmHg 51%
    17:00 +29°C° 0 mm 5 mps 758 mmHg 55%
    18:00 +28°C° 0 mm 5 mps 758 mmHg 60%
    19:00 +26°C° 0 mm 5 mps 759 mmHg 64%
    20:00 +25°C° 0 mm 4 mps 760 mmHg 68%
    21:00 +23°C° 0 mm 4 mps 760 mmHg 73%
    22:00 +22°C° 0 mm 4 mps 760 mmHg 75%
    23:00 +22°C° 0 mm 4 mps 760 mmHg 78%

    27 April, Saturday

    Time Temperature Precipitation Wind Pressure Humidity
    00:00 +21°C° 0 mm 4 mps 760 mmHg 80%
    01:00 +20°C° 0 mm 4 mps 760 mmHg 81%
    02:00 +19°C° 0 mm 4 mps 760 mmHg 82%
    03:00 +19°C° 0 mm 3 mps 760 mmHg 82%
    04:00 +18°C° 0 mm 3 mps 760 mmHg 82%
    05:00 +18°C° 0 mm 3 mps 760 mmHg 82%
    06:00 +18°C° 0 mm 3 mps 761 mmHg 81%
    07:00 +20°C° 0 mm 3 mps 761 mmHg 73%
    08:00 +24°C° 0 mm 3 mps 761 mmHg 66%
    09:00 +26°C° 0 mm 2 mps 761 mmHg 58%
    10:00 +28°C° 0 mm 2 mps 761 mmHg 54%
    11:00 +29°C° 0 mm 2 mps 761 mmHg 50%
    12:00 +31°C° 0 mm 2 mps 760 mmHg 46%
    13:00 +31°C° 0 mm 3 mps 760 mmHg 45%
    14:00 +33°C° 0 mm 3 mps 759 mmHg 44%
    15:00 +33°C° 0 mm 3 mps 759 mmHg 43%
    16:00 +30°C° 0 mm 3 mps 759 mmHg 50%
    17:00 +29°C° 0 mm 4 mps 759 mmHg 58%
    18:00 +27°C° 0 mm 4 mps 759 mmHg 65%
    19:00 +26°C° 0 mm 3 mps 760 mmHg 72%
    20:00 +24°C° 0 mm 3 mps 760 mmHg 79%
    21:00 +23°C° 0 mm 2 mps 761 mmHg 87%
    22:00 +21°C° 0 mm 2 mps 761 mmHg 89%
    23:00 +22°C° 0 mm 1 mps 761 mmHg 92%
    Show more